Погода в Шадринске

Погода в Шадринске : погода сейчас, прогноз погоды и архив. Всё, что Вы хотите узнать о погоде в Шадринске!

Хотите узнать прогноз погоды в Шадринске? Тогда Вам сюда: Погода в Шадринске

Поиск расширенной информации на нашем сайте:

Другие новости

Новости СМИ2

Главная страница сайта

Новости сайта

03.07.2017

Напоминаем, что на нашем специализированном сайте Метеоцентр.Азия вы можете получить высокодетализированные автоматические прогнозы погоды по пунктам России, СНГ и мира в авиационном формате (включающие направление и скорость ветра, видимость, явления погоды, количество и форму облачности, нижнюю и верхнюю границу облачности).


Погода в Шадринске - сегодня

Время (UTC), дата Ветер
(°,м/с) 
Видим.   Явления Облачность Т
(°С)
Тd
(°С)
f(%) Тe
(°С)
Pmin
(гПа)
dP
(гПа)
Po
(мм)
O2
(г/м3)
Тmin Tmax R s Состояние
почвы
15 13.01.18 240 (ЮЗ) 10 км    3/0 верхняя 
[Ci sp]
-19.2 -23.9 66 -22  1027.7  -1  762  332    -18.9       
18 13.01.18 270 (З) 10 км    ясно 
-18.8 -22.3 74 -23  1027.7  0.1  762  331           
21 13.01.18 240 (ЮЗ) 10 км    ясно 
-19.4 -23.2 72 -24  1027.3  -0.4  761  332           
00 14.01.18 240 (ЮЗ) 10 км    ясно 
-19.8 -23.2 74 -23  1027.1  -0.2  761  332           
03 14.01.18 250 (З) 10 км    ясно 
-19.1 -22.7 73 -24  1026.3  -0.7  761  331  -20      10  равномерный
сухой снег
100% 
06 14.01.18 270 (З) 10 км    10/8 600 м верхняя 
[Sc|Ci sp]
-16.7 -20.7 71 -19  1026.6  0.4  761  328           
09 14.01.18 280 (З) 10 км  в посл. час снег  10/6 600 м средняя, верхняя 
[Sc|As trans|Ci sp]
-15.1 -20.1 66 -20  1026.9  0.4  761  326           
12 14.01.18 290 (З) 4000 м  слаб. снег  10/0 средняя 
[As trans]
-15.6 -19.8 70 -19  1028  762  327           
15 14.01.18 280 (З) 4000 м  слаб. снег  10/0 средняя 
[As op]
-15.1 -18.4 76 -17  1028.6  0.6  762  327    -14.8  0.0     
18 14.01.18 260 (З) 10 км  {снег}  8/4 600 м средняя 
[Sc|Ac As]
-17.7 -20.6 78 -18  1029.4  0.6  763  330           
21 14.01.18 260 (З) 10 км    8/4 600 м верхняя 
[Sc|Ci sp]
-18.6 -21.3 79 -19  1028.6  -0.8  762  331           
00 15.01.18 240 (ЮЗ) 10 км    4/3 600 м верхняя 
[Sc|Ci sp]
-17.9 -21.1 76 -22  1028.9  0.3  763  330           
03 15.01.18 260 (З) 10 км    4/3 600 м верхняя 
[Sc|Ci sp]
-17.4 -20.7 75 -18  1028.5  -0.4  762  330  -19.6    0.0  11  равномерный
сухой снег
100% 
06 15.01.18 250 (З) 10 км    9/6 600 м верхняя 
[Sc|Ci sp]
-14.4 -17.6 77 -14  1027.9  -0.5  762  326           
09 15.01.18 280 (З) 10 км    9/9 600 м 
[Sc]
-9.8 -13.7 73 -13  1027.5  0.1  762  320           
12 15.01.18 280 (З) 10 км    10/10 600 м 
[Sc]
-8.2 -11.7 76 -12  1027.8  0.3  762  318           
15 15.01.18 270 (З) 10 км    4/3 600 м верхняя 
[Sc|Ci sp]
-9.6 -12.4 80 -11  1027.7  -0.2  762  319    -8       
18 15.01.18 270 (З) 10 км    10/10 600 м 
[Sc]
-8.8 -11.1 83 -10  1027.6  762  318           
21 15.01.18 270 (З) 10 км    10/10 600 м 
[Sc]
-8.2 -10.3 85 -11  1027.4  -0.3  762  317           
00 16.01.18 260 (З) 4000 м  слаб. снег  10/10 600 м 
[Sc]
-7.8 -9.6 87 -9  1027.5  0.1  762  317           
03 16.01.18 260 (З) 4000 м  слаб. снег  10/10 600 м 
[Sc]
-7.9 -10.1 84 -11  1026.6  -0.8  761  317  -10.5    0.0  11  равномерный
сухой снег
100% 
06 16.01.18 240 (ЮЗ) 10 км  в посл. час снег  9/8 600 м верхняя 
[Sc|Ci sp]
-8.3 -10.8 82 -11  1026.1  -0.5  761  317           
09 16.01.18 280 (З) 10 км  {снег}  10/10 600 м 
[Sc]
-6.9 -9.9 79 -8  1026.1  0.1  761  316           
12 16.01.18 230 (ЮЗ) 10 км  {снег}  9/9 600 м 
[Sc]
-9.1 -11.6 82 -11  1026  0.1  761  318           
15 16.01.18 250 (З) 10 км    4/0 верхняя 
[Ci sp]
-10.9 -12.7 87 -11  1026.1  761  320    -6.8  0.0     
Время (UTC), дата Ветер
(°,м/с) 
Видим.   Явления Облачность Т
(°С)
Тd
(°С)
f(%) Тe
(°С)
Pmin
(гПа)
dP
(гПа)
Po
(мм)
O2
(г/м3)
Тmin Tmax R s Состояние
почвы

Для получения пояснительной информации подведите курсор к названию столбца.

ПОГОДА в Шадринске - архив

Всё, что Вы хотите узнать о погоде в Шадринске - удобно и подробно!

Выберите нужную дату (начиная с 1 января 2015* года) и нажмите кнопку "Найти".
Будут отображены архивные сводки погоды по пункту Шадринск, начиная с указанной даты.


Отображать данные в формате CSV (для использования в таблицах Excel)


Внимание! Наш архив погоды предназначен исключительно для личного некоммерческого использования в познавательных целях. Если Вам необходимы официальные справки о состоянии погоды (для производственных, юридических, коммерческих и т.п. целей), обращайтесь в органы Росгидромета.

*Примечание: данная дата относится к архиву по метеостанциям СССР (Россия, СНГ, Балтия).
Архив по метеостанциям Зарубежной Европы и Азии (кроме Китая) хранится 10 дней, по другим регионам земного шара (Китай, Африка, Америка, Австралия, Океания) - 1 день.

Шадринск - район местоположения метеостанции


Название, широта, долгота, высота метеостанции:
Шадринск 56.1°ш. 63.6°д. 89 м над ур. моря [Российская Федерация]

Дополнительная информация

В oтличие oт бoльшинства пoгoдных сайтoв мы публикуем пoдрoбную метеoинфoрмацию в детальнoм прoфессиoнальнoм фoрмате.

Характеристики температуры и влажнoсти вoздуха измеряются на высoте 2 м в тени вдали oт зданий и деревьев.
Скoрoсть ветра измеряется на высoте 10 м (на урoвне рoста челoвека скoрoсть ветра ниже в 1.5-2 раза). Если метеoстанция нахoдится в гoрoде или в лесу, тo скoрoсть ветра занижена на 2-4 м/с пo сравнению с oткрытым местoм. Скoрoсть ветра над акватoриями крупных рек и oзёр, а также на вершинах хoлмoв на 2-5 м/с выше, чем в oбычных услoвиях.
Атмoсфернoе давление в разных тoчках местнoсти мoжет значительнo oтличаться oт давления на метеoстанции, в зависимoсти oт услoвий рельефа (при пoдъёме на 10 м давление пoнижается примернo на 1 мм рт.ст.).